LiveATC.Net - Listen to live air traffic control over the Internet!


ICAO: EPRZ  IATA: RZE   Airport: Rzeszow-Jasionka Airport
City: Jasionka
Country: Poland   Continent: Europe
EPRZ METAR Weather: EPRZ 010000Z 02007KT 340V050 9999 FEW050CB 20/16 Q1016
EPRZ Flight Activity (FlightAware)
EPRZ Webcam: (Airport Webcams)
EPRZ Del/Twr/EPWW Radar
Feed Status: DOWN
Last heard on: 2016-06-30 23:06:02 (0 days 1 hours 43 minutes ago)
EPRZ Del/Twr/EPWW Radar Audio Archives
FacilityFrequency
EPWW Radar120.950
EPWW Radar134.175
Rzeszow Delivery121.800
Rzeszow Tower126.800


NOTICE

Unauthorized use prohibited. See LiveATC.net Terms of Service


Find LiveATC Audio Streams


Airport/ARTCC Code

Frequency
(e.g., 124.400, 128.75)
Site-wide search

Browse LiveATC Feeds
LiveATC Coverage Map
Top 50 LiveATC Feeds
Bad Weather Areas

LiveATC FAQ
Offer a LiveATC Feed
Contact LiveATC.net
Press Inquiries

LiveATC on iPhone
LiveATC on Android

Windows Phone
Windows 8/10

LiveATC Mobile
(Mobile browser)

ATC Audio Archives
Interesting Recordings

LiveATC Forums


Home Page
About LiveATC.net
Make a Donation
LiveATC Store

Terms of Use
Privacy Policy

Canadian Air Freqs

AIRMETs/SIGMETs

FAA Airport Status
Nat'l Airspace Status
Arrival Demand Charts


Server Software By:
Icecast.org
Liquidsoap